Back to catalog

ONEWEB-0456

AliveCommunicationsPO
NORAD 51646·PAYLOAD·🇬🇧 United Kingdom

Launched Feb 10, 2022 from Guiana Space Centre

Loading…

Next Passes (next 24 hours)

TLE

FreshSource: CelesTrak SupGP

Epoch: Sep 14, 2026, 22:08 UTC

1 51646C 22012AA  26257.92238843 -.00002456  00000+0 -70431-2 0  2572
2 51646  87.8915  18.3952 0001771  97.0607 322.1736 13.10378298    12

Track ONEWEB-0456 in real time with AllMySat

Download on the App Store